Regional Weather Roundup
Issued by NWS

Home | Current Version | Previous Version | Text Only | Print | Product List | Glossary On
Versions: 1 2 3 4 5 6 7 8 9 10 11 12 13 14 15 16 17 18 19 20 21 22 23 24 25 26 27 28 29 30 31 32 33 34 35 36 37 38 39 40 41 42 43 44 45 46 47 48 49 50
941
ASUS43 KDTX 170301
RWRMI
MICHIGAN HOURLY REGIONAL WEATHER ROUNDUP
NATIONAL WEATHER SERVICE DETROIT/PONTIAC MI
1100 PM EDT MON OCT 16 2017

NOTE: "FAIR" INDICATES FEW OR NO CLOUDS BELOW 12,000 FEET WITH NO
SIGNIFICANT WEATHER AND/OR OBSTRUCTION TO VISIBILITY.

MIZ047>049-052>055-059>063-066>070-074>076-081>083-170400-
SOUTHEAST LOWER MICHIGAN

CITY           SKY/WX    TMP DP  RH WIND       PRES   REMARKS
ADRIAN         CLEAR     43  40  89 CALM      30.27S
ALMA           CLEAR     43  37  78 S3        30.21S
ANN ARBOR      CLEAR     35  35 100 CALM      30.25S
BAD AXE        CLEAR     44  35  71 SW7       30.21S
CARO           CLEAR     41  36  83 CALM      30.21S
DETROIT CITY   CLEAR     46  39  76 S5        30.26S
DETROIT        PTCLDY    46  39  76 S3        30.26S
FLINT          CLEAR     46  37  71 S6        30.23F
GROSSE ILE     CLEAR     50  40  67 SW5       30.25S
HILLSDALE      CLEAR     41  37  87 S3        30.24F
HOWELL         CLEAR     45  40  82 CALM      30.23S

CITY           SKY/WX    TMP DP  RH WIND       PRES   REMARKS
JACKSON        CLEAR     43  39  86 CALM      30.23F
LAMBERTVILLE   CLEAR     43  40  89 CALM      30.26S
LANSING        CLEAR     43  37  79 S6        30.22F
LAPEER         FAIR      42  37  83 S3        30.23S
MASON          CLEAR     45  40  81 SE5       30.23F
MONROE         CLEAR     42  40  93 CALM      30.26S
PONTIAC        CLEAR     43  39  86 CALM      30.23S
PORT HOPE        N/A     47  35  63 VRB3      30.18S
PORT HURON     CLEAR     37  36  93 CALM      30.24S
TRI CITIES     CLEAR     47  41  80 S6        30.21S
MIDLAND        FAIR      40  38  92 CALM      30.20R
TROY           CLEAR     48  37  67 SW5       30.26S
SAGINAW HB     CLEAR     45  39  81 S6        30.21S
$$
MIZ043>046-050>051-056>058-064>065-071>073-077>080-170400-
SOUTHWEST LOWER MICHIGAN

CITY           SKY/WX    TMP DP  RH WIND       PRES   REMARKS
BATTLE CREEK   CLEAR     44  38  79 S5        30.23F
BENTON HARBOR  CLEAR     49  39  68 S5        30.22S
BIG RAPIDS     CLEAR     40  37  90 CALM      30.18S
COLDWATER      CLEAR     44  42  92 CALM      30.25S
FREMONT        FAIR      45  41  87 S5        30.18S
HOLLAND        CLEAR     46  40  79 S7        30.21S
GRAND RAPIDS   CLEAR     47  40  76 S8        30.21R
IONIA          FAIR      45  38  75 S5        30.21S
LUDINGTON      CLEAR     44  39  85 SE3       30.15S
MARSHALL       CLEAR     42  39  89 CALM      30.23F
MOUNT PLEASANT CLEAR     47  38  71 CALM      30.19S
MUSKEGON       PTCLDY    47  43  86 SE5       30.19R
SOUTH HAVEN    CLEAR     47  41  81 CALM      30.22R
$$
MIZ016>042-170400-
NORTHERN LOWER MICHIGAN

CITY           SKY/WX    TMP DP  RH WIND       PRES   REMARKS
ALPENA         CLEAR     44  39  82 CALM      30.15S
BEAVER ISLAND  PTCLDY    55  43  63 SW14G21   30.06F
BELLAIRE       CLEAR     46  38  72 CALM      30.13F
CADILLAC       CLEAR     45  37  76 SW7       30.14F
CHARLEVOIX     CLEAR     49  40  71 S8        30.13S
FRANKFORT      CLEAR     49  42  76 SE5       30.12F
GAYLORD        CLEAR     43  35  73 SW12      30.12S
GRAYLING       CLEAR     44  36  71 SW7       30.15S
HARBOR SPRINGS CLEAR     48  38  69 S9        30.10S
HOUGHTON LAKE  CLEAR     47  38  71 SW10      30.16F
MANISTEE       CLEAR     43  39  86 E3        30.14F
OSCODA         CLEAR     44  38  77 SW6       30.16F
PELLSTON       PTCLDY    45  39  79 S5        30.10F
ROGERS CITY    CLEAR     44  37  78 S8        30.13F
TRAVERSE CITY  CLEAR     48  38  68 S5        30.11F
$$
MIZ007>008-015-170400-
EASTERN UPPER MICHIGAN

CITY           SKY/WX    TMP DP  RH WIND       PRES   REMARKS
KINROSS        CLOUDY    47  42  83 S8        30.06F
MACKINAC ISLAN PTCLDY    50  40  70 S10G18    30.08S
NEWBERRY       CLEAR     44  42  91 S7        30.03F
S. S. MARIE    MOCLDY    45  39  79 S7        30.06S
MUNISING         N/A     49  39  68 S10       29.99F
$$
MIZ004>006-011>014-085-170400-
CENTRAL UPPER MICHIGAN

CITY           SKY/WX    TMP DP  RH WIND       PRES   REMARKS
MANISTIQUE     CLEAR     53  38  56 SW10G18   30.03F
ESCANABA       CLEAR     51  38  60 SW12      30.04S
MENOMINEE      CLEAR     51  39  63 SW6       30.07F
SAWYER-GWINN   CLEAR     42  36  80 S10       29.99F
$$
MIZ001>003-009>011-084-170400-
WESTERN UPPER MICHIGAN

CITY           SKY/WX    TMP DP  RH WIND       PRES   REMARKS
IRON MOUNTAIN  CLEAR     45  34  65 S5        30.01F
HOUGHTON       CLOUDY    51  33  50 SW10G20   29.91S
COPPER HARBOR    N/A     52  36  54 VRB6      29.90S
IRONWOOD       CLEAR     53  34  48 SW14G22   29.94S
$$

ABBREVIATIONS USED IN REMARKS
   TC - TEMPERATURE IN CELSIUS
  WCI - WIND CHILL INDEX
   HX - HEAT INDEX
  VSB - VISIBILITY





USA.gov is the U.S. government's official web portal to all federal, state and local government web resources and services.